Location: Star Hoppers Observatory
(42.7905°N, 83.6127°W)
Time: 06:50:14
(UTC-04:00)

Daily predictions for brighter satellites

Satellite Brightness Start Highest point End
(mag) Time Altitude Azimuth Time Altitude Azimuth Time Altitude Azimuth
Cosmos 1634 Rocket 4.4 21:26:54 10° N 21:32:57 46° ENE 21:38:59 10° SSE
Cosmos 2082 Rocket 3.6 21:29:12 10° NW 21:34:22 38° WSW 21:39:32 10° S
ATLAS 3B R/B 4.2 21:28:23 10° WSW 21:35:25 45° NW 21:42:12 10° NNE
H-2A R/B 3.8 21:33:53 10° ESE 21:37:26 18° ENE 21:40:57 10° NNE
In-Cosmos 22 Rocket 4.5 21:32:54 10° SSW 21:38:42 82° W 21:44:34 10° N
Cosmos 1937 Rocket 3.5 21:34:48 10° SSW 21:39:56 86° ESE 21:45:07 10° NNE
Lacrosse 4 Rocket 3.6 21:37:16 10° N 21:40:14 17° NE 21:43:09 10° E
CZ-4B DEB 3.1 21:38:23 10° SE 21:41:09 39° ENE 21:43:55 10° N
SL-19 R/B 4.5 21:37:28 10° SSE 21:43:11 89° E 21:49:23 10° NNW
Cosmos 1408 4.1 21:42:33 10° SE 21:45:15 19° E 21:47:58 10° NE
Cosmos 1833 Rocket 4.4 21:40:34 10° NW 21:45:30 32° WSW 21:50:24 10° SSW
Meteor 1-29 3.4 21:43:13 10° NNE 21:46:35 42° E 21:49:53 10° S
Cosmos 2150 Rocket 4.2 21:42:39 10° SSW 21:48:02 85° WNW 21:53:22 10° NNE
Cosmos 2298 Rocket 4.3 21:43:02 10° SSW 21:48:19 75° WNW 21:53:39 10° NNE
Cosmos 1315 Rocket 4.1 21:44:58 10° SSW 21:48:51 46° WNW 21:52:49 10° N
Cosmos 1825 3.6 21:46:02 10° SE 21:48:52 20° E 21:51:42 10° NE
Shenzhou-11 Module 2.9 21:49:44 10° W 21:52:37 36° SSW 21:55:05 13° SE
Resurs 01 Rocket 3.7 21:51:03 10° SSW 21:54:50 28° W 21:58:39 10° NW
Molniya-1 3.3 21:59:44 10° S 22:02:55 - ENE 22:01:01 23° SE
Helios 1A 3.2 21:57:15 10° S 22:01:25 71° WSW 22:05:38 10° NNW
Cosmos 1892 3.2 21:59:27 10° SSW 22:03:16 63° W 22:07:05 10° N
COSMOS 2455 2.8 22:00:36 10° SSW 22:06:35 72° ESE 22:12:35 10° NE
MetOp-A 4.3 22:01:47 11° SSE 22:06:53 57° ENE 22:12:07 10° N
Cosmos 2279 Rocket 4.3 22:01:58 10° N 22:08:03 51° ENE 22:13:34 13° SSE
ERS-1 Rocket 3.0 22:03:30 10° SSE 22:08:29 68° ENE 22:13:30 10° N
Cosmos 1943 Rocket 2.6 22:06:53 10° S 22:12:03 40° ESE 22:17:13 10° NE
Cosmos 2142 Rocket 4.4 22:07:04 10° N 22:13:14 82° E 22:19:23 10° S
Cosmos 2263 4.3 22:09:42 10° S 22:15:18 54° ESE 22:20:53 10° NNE
NOSS 3-2 (A) 4.5 22:09:30 10° WSW 22:15:23 52° NW 22:21:55 10° NNE
Aureole 1 4.3 22:12:43 10° SSW 22:15:43 82° WNW 22:19:09 10° NNE
NOAA 11 4.2 22:13:36 10° SSE 22:19:02 84° ENE 22:24:34 10° NNW
Milstar 3 4.2 22:14:21 10° SW 22:23:16 26° S 22:27:31 17° SE
Cosmos 1340 3.2 22:20:22 10° N 22:23:59 41° ENE 22:25:59 22° SE
USA 215 3.3 22:19:36 16° SE 22:25:05 88° NE 22:31:42 10° NW
Okean 1-7 3.0 22:21:04 10° N 22:25:30 90° W 22:29:16 14° S
Lacrosse 5 rocket 0.8 22:25:24 10° SW 22:28:57 78° SE 22:32:37 10° NE
Cosmos 2369 Rocket 2.3 22:24:05 10° SSW 22:29:45 84° WNW 22:35:29 10° NNE
Cosmos 1703 Rocket 4.4 22:29:43 10° NNW 22:33:59 48° W 22:38:11 10° SSW
Cosmos 1606 2.6 22:31:08 10° N 22:34:56 88° E 22:37:22 21° S
SPOT 1/Viking Rocket 3.9 22:31:51 20° SE 22:35:12 52° ENE 22:40:15 10° N
NOSS 3-2 (C) 4.5 22:29:35 10° WSW 22:35:28 50° NW 22:42:00 10° NNE
SL-08 RB Rocket 3.8 22:35:00 21° SSE 22:38:03 68° ENE 22:42:42 10° N
DNEPR-1 R/B 3.7 22:32:55 10° SSW 22:38:10 67° ESE 22:42:39 10° NE
GEOS 3 Rocket 4.4 22:38:07 18° ESE 22:41:35 42° NE 22:46:31 10° NNW
ISS -3.4 22:40:40 10° WSW 22:43:54 64° NNW 22:47:08 10° NE
Meteor 1-10 Rocket 4.5 22:39:27 10° NNW 22:45:25 76° W 22:50:18 15° S
Cosmos 1269 Rocket 4.0 22:40:16 10° NNW 22:45:35 80° ENE 22:48:45 25° SSE
Meteor 1-27 Rocket 3.8 22:39:58 10° N 22:45:44 66° ENE 22:49:13 24° SSE
Cosmos 372 Rocket 3.8 22:42:08 10° SSW 22:47:15 78° ESE 22:52:23 10° NNE
Cosmos 1733 Rocket 3.4 22:45:53 28° SSE 22:47:42 46° E 22:51:51 10° NNE
Terra 2.7 22:49:48 25° ESE 22:51:46 35° ENE 22:56:04 10° N
CENTAUR R/B 2.5 22:47:06 10° SSW 22:53:06 86° SE 23:00:01 10° NE
Cosmos 1125 Rocket 3.6 22:47:55 10° SSW 22:53:10 79° WNW 22:58:25 10° NNE
Nimbus 7 Rocket 4.4 22:49:31 10° NNE 22:55:23 64° ESE 22:59:42 18° S
ATLAS 5 CENTAUR R/B 2.4 22:49:44 10° NW 22:55:45 83° NE 22:59:28 27° SE
Cosmos 1437 4.2 22:54:46 10° NNE 22:57:24 24° ENE 22:57:24 24° ENE
Tiangong 2 3.0 22:55:32 10° WSW 22:57:47 19° SSW 22:57:47 19° SSW
SPOT 5 3.3 22:58:44 21° S 23:02:19 69° WSW 23:07:39 10° NNW
GPS 2-04 Rocket1 4.1 23:03:15 10° WSW 23:05:16 21° SSW 23:05:16 21° SSW
Cosmos 1782 4.3 23:03:31 10° NNW 23:07:08 33° W 23:09:54 15° SSW
ARGOS 3.8 23:06:21 18° S 23:10:11 51° W 23:15:25 10° NNW
Cosmos 1867 4.2 23:05:12 10° NNW 23:10:28 46° NE 23:12:56 28° ESE
Cosmos 1656 Rocket 3.7 23:10:03 28° S 23:12:43 56° ESE 23:18:06 10° NNE
H-2A R/B 2.3 23:13:15 26° S 23:16:19 68° WSW 23:21:39 10° NNW
Lacrosse 4 Rocket 1.7 23:14:58 10° NW 23:19:26 68° WSW 23:20:44 43° S
CARTOSAT-1 3.6 23:19:18 47° SE 23:20:21 66° ENE 23:24:40 10° N
Cosmos 1674 Rocket 3.4 23:19:27 10° N 23:23:49 89° E 23:24:53 51° S
CZ-4 R/B 4.5 23:19:36 10° NNE 23:23:50 34° E 23:23:54 34° E
Cosmos 1825 4.2 23:21:06 10° SW 23:24:17 25° WNW 23:27:30 10° NNW
Cosmos 1378 Rocket 3.9 23:21:02 10° N 23:25:21 50° ENE 23:26:03 46° ESE
Cosmos 1862 4.3 23:24:27 21° SW 23:26:45 44° WNW 23:30:35 10° N
Cosmos 494 Rocket 4.0 23:22:16 10° NNW 23:27:30 69° ENE 23:29:03 44° SE
Cosmos 1092 Rocket 3.9 23:27:20 32° S 23:30:22 78° E 23:36:31 10° N
ATLAS CENTAUR R/B 3.2 23:33:00 17° ENE 23:33:00 17° ENE 23:34:11 10° NE
Nadezhda 4 Rocket 4.1 23:27:53 21° SSW 23:32:16 73° W 23:38:27 10° N
Cosmos 2227 Rocket 3.8 23:32:33 10° N 23:37:02 23° NE 23:39:30 18° E
H-2A R/B 2.0 23:37:08 58° E 23:37:29 61° ENE 23:41:33 10° N
Cosmos 2219 3.4 23:36:09 10° NNW 23:41:53 64° ENE 23:43:36 44° SE
CZ-2C R/B 4.3 23:38:48 10° NE 23:41:46 18° E 23:41:46 18° E
CZ-4B R/B 3.8 23:41:15 10° NNE 23:46:00 44° E 23:46:05 44° ESE
Cosmos 1812 3.1 23:42:36 10° N 23:46:07 51° ENE 23:46:07 51° ENE
CZ-4C R/B 4.0 23:53:17 45° ENE 23:53:22 45° ENE 23:57:22 10° N
Okean 3 3.5 23:51:05 10° NNW 23:55:14 67° W 23:55:33 63° SW
